{"data":{"norad_id":46353,"intl_designator":"2020-062AE","name":"STARLINK-1656","alt_names":[],"object_type":"PAYLOAD","status":"ACTIVE","operator":null,"country":"US","launch_date":"2020-09-03","launch_site_code":"AFETR","launch_vehicle":null,"mission":null,"orbit_class":"UNKNOWN","rcs_meters":null,"size_class":null,"mass_kg":null,"dimensions":null,"purposes":["comms"],"wikipedia_slug":null,"has_3d_model":false,"image_url":null,"decayed_at":null,"tle_current":{"epoch":"2026-05-25T01:09:12.225024Z","epoch_age_seconds":64192,"freshness":"FRESH","line1":"1 46353U 20062AE  26145.04805816  .00077943  00000+0  73872-3 0  9990","line2":"2 46353  53.0429 347.7511 0005350 131.8813 228.2659 15.66254896316468","mean_motion":15.66254896,"eccentricity":0.000535,"inclination_deg":53.0429,"raan_deg":347.7511,"arg_perigee_deg":131.8813,"mean_anomaly_deg":228.2659,"bstar":0.00073872,"rev_number":31646,"period_min":91.939058174858,"perigee_km":366.02205025675,"apogee_km":373.24216320095,"semimajor_km":6747.7691067288,"source":"CELESTRAK","updated_at":"2026-05-25T13:38:16.472653Z"}}}